Location: Auttagershofen
(48.1940°N, 10.0237°E)
Time: 09:24:20
(UTC+00:00)

SMAP - Pass Details

Date: 18 January 2026
Orbit: 682 x 683 km, 98.1° (Epoch: 15 February)

Event Time Altitude Azimuth Distance (km) Brightness Sun altitude
Rises 05:13:30 0° 19° (NNE) 3,058 6.5 -17.9°
Reaches altitude 10° 05:15:51 10° 27° (NNE) 2,137 5.8 -17.5°
Maximum altitude 05:20:18 42° 98° (E) 970 4.4 -16.8°
Drops below altitude 10° 05:24:42 10° 170° (S) 2,120 5.9 -16.1°
Sets 05:27:02 0° 177° (S) 3,030 6.6 -15.7°
